TimeEST,TemperatureF,Dew PointF,Humidity,Sea Level PressureIn,VisibilityMPH,Wind Direction,Wind SpeedMPH,Gust SpeedMPH,PrecipitationIn,Events,Conditions,WindDirDegrees,DateUTC
12:15 AM,42.8,37.4,81,30.14,0.2,East,4.6,-,0.01,,Overcast,90,2013-01-12 05:15:00
12:35 AM,42.8,37.4,81,30.13,0.2,ENE,5.8,-,0.01,,Overcast,70,2013-01-12 05:35:00
1:15 AM,39.2,35.6,87,30.13,0.8,ENE,6.9,-,N/A,,Overcast,70,2013-01-12 06:15:00
1:35 AM,39.2,35.6,87,30.14,2.5,ENE,5.8,-,N/A,,Overcast,70,2013-01-12 06:35:00
1:55 AM,39.2,33.8,81,30.14,2.5,ENE,5.8,-,N/A,,Overcast,70,2013-01-12 06:55:00
2:15 AM,39.2,33.8,81,30.13,2.5,ENE,5.8,-,N/A,,Overcast,60,2013-01-12 07:15:00
2:35 AM,39.2,33.8,81,30.12,2.5,ENE,8.1,-,N/A,,Overcast,60,2013-01-12 07:35:00
2:55 AM,39.2,33.8,81,30.12,2.5,NE,4.6,-,0.01,,Overcast,40,2013-01-12 07:55:00
3:35 AM,39.2,35.6,87,30.12,3.0,NE,5.8,-,N/A,,Overcast,40,2013-01-12 08:35:00
3:55 AM,39.2,35.6,87,30.12,3.0,NE,4.6,-,0.01,,Overcast,40,2013-01-12 08:55:00
4:55 AM,39.2,33.8,81,30.10,1.2,ENE,5.8,-,N/A,,Overcast,70,2013-01-12 09:55:00
5:15 AM,39.2,33.8,81,30.10,0.5,NNE,3.5,-,N/A,,Overcast,20,2013-01-12 10:15:00
5:45 AM,39.2,35.6,87,30.12,0.5,ENE,3.5,-,N/A,Fog,Light Drizzle,70,2013-01-12 10:45:00
5:55 AM,39.2,35.6,87,30.12,1.0,Calm,Calm,-,N/A,,Overcast,0,2013-01-12 10:55:00
6:30 AM,39.2,33.8,81,30.13,1.0,NNE,6.9,-,N/A,,Light Drizzle,30,2013-01-12 11:30:00
6:45 AM,39.2,33.8,81,30.14,2.0,NE,4.6,-,N/A,,Light Drizzle,50,2013-01-12 11:45:00
7:45 AM,39.2,35.6,87,30.15,2.0,NE,5.8,-,N/A,,Light Drizzle,50,2013-01-12 12:45:00
8:45 AM,39.2,35.6,87,30.16,1.0,NNE,5.8,-,N/A,,Overcast,30,2013-01-12 13:45:00
9:45 AM,39.2,35.6,87,30.16,0.5,East,4.6,-,N/A,Fog,Fog,80,2013-01-12 14:45:00
10:45 AM,41.0,37.4,87,30.15,0.5,East,4.6,-,N/A,Fog,Fog,100,2013-01-12 15:45:00
11:45 AM,42.8,37.4,81,30.13,0.8,NE,4.6,-,N/A,,Overcast,40,2013-01-12 16:45:00
12:45 PM,42.8,39.2,87,30.13,0.8,NE,4.6,-,N/A,,Overcast,40,2013-01-12 17:45:00
1:20 PM,42.8,39.2,87,30.15,0.2,NE,4.6,-,N/A,Fog,Fog,40,2013-01-12 18:20:00
1:45 PM,42.8,39.2,87,30.15,0.5,Calm,Calm,-,N/A,Fog,Fog,0,2013-01-12 18:45:00
2:15 PM,42.8,39.2,87,30.16,1.0,Calm,Calm,-,N/A,,Mist,0,2013-01-12 19:15:00
2:45 PM,44.6,41.0,87,30.14,1.0,Calm,Calm,-,N/A,,Mist,0,2013-01-12 19:45:00
3:45 PM,44.6,39.2,81,30.16,0.5,Calm,Calm,-,N/A,Fog,Fog,0,2013-01-12 20:45:00
4:45 PM,42.8,39.2,87,30.16,0.2,Calm,Calm,-,N/A,Fog,Fog,0,2013-01-12 21:45:00
5:45 PM,42.8,39.2,87,30.18,0.2,Calm,Calm,-,N/A,Fog,Fog,0,2013-01-12 22:45:00
6:45 PM,42.8,39.2,87,30.15,0.2,Calm,Calm,-,N/A,Fog,Fog,0,2013-01-12 23:45:00
9:35 PM,42.8,39.2,87,30.15,0.2,SW,3.5,-,N/A,,Overcast,230,2013-01-13 02:35:00
9:55 PM,42.8,37.4,81,30.14,0.2,Calm,Calm,-,N/A,,Overcast,0,2013-01-13 02:55:00
10:35 PM,42.8,37.4,81,30.13,0.2,Calm,Calm,-,N/A,,Overcast,0,2013-01-13 03:35:00
10:55 PM,42.8,37.4,81,30.14,0.2,Calm,Calm,-,N/A,,Overcast,0,2013-01-13 03:55:00
11:15 PM,41.0,37.4,87,30.15,0.2,Calm,Calm,-,N/A,,Overcast,0,2013-01-13 04:15:00
11:35 PM,42.8,37.4,81,30.14,0.2,Calm,Calm,-,N/A,,Overcast,0,2013-01-13 04:35:00
11:55 PM,42.8,37.4,81,30.14,0.2,Calm,Calm,-,N/A,,Overcast,0,2013-01-13 04:55:00